User: anonymous   Login
Location: Nirvana
(45.0297°N, 77.2628°W)
Time: 13:10:27
(UTC-05:00)
Language:

H-2A R/B - Orbit

View from above orbital plane
View from above orbital plane
View from above satellite
View from above satellite

Ground track
Ground track

The orbit data is extracted from the following two-line orbital elements,

1 27601U 02056E   17021.80162384  .00000024  00000-0  24255-4 0  9990
2 27601  98.3953  94.5335 0072260  10.4173 126.4873 14.31759065736869
Epoch (UTC): 21 January 2017 19:14:20
Eccentricity: 0.0072260
inclination: 98.3953°
perigee height: 734 km
apogee height: 837 km
right ascension of ascending node: 94.5335°
argument of perigee: 10.4173°
revolutions per day: 14.31759065
mean anomaly at epoch: 126.4873°
orbit number at epoch: 73686

The dashed part of the orbit path shows where the satellite is in the earth's shadow,  

DLR